sat.trackr.live / text

‹ back to catalog

KUIPER-00270

NORAD 67791 · 2026-030AD

PAYLOAD ACTIVE UNKNOWN

§ Identity

Operator
Country
US
Launch date
2026-02-12
Launch site
FRGUI
Launch vehicle
Mass (kg)
RCS (m²)

External: N2YO · Heavens-Above · Gunter

§ Orbital elements

Epoch: 2026-05-24T14:23:56.077440Z

Period
93.75 min
Inclination
51.8817°
Eccentricity
0.0011247
Mean motion
15.36076325 rev/d
Perigee alt
450.0 km
Apogee alt
465.4 km
Semi-major
6,835.9 km
B*
2.6463e-4
RAAN
213.3698°
Arg perigee
331.2055°
Mean anomaly
28.8309°
Rev number
1,675

§ Raw data

KUIPER-002701 67791U 26030AD  26144.59995460  .00009081  00000+0  26463-3 0  99962 67791  51.8817 213.3698 0011247 331.2055  28.8309 15.36076325 16755

JSON: /api/v1/satellites/67791 · /tle

For live sub-satellite position, see the globe view (requires WebGL).

§ Visibility from observer

Set your observer location to see the next 7 days of passes ≥ 10°. The values pass through the URL so the page stays shareable.

No JS? Fill the form by hand. The geolocation button needs JavaScript.